Flag for Italy Weather past 2 weeks in Catania, Italy

Now
82 °F

Sunny.


Feels Like: 87 °F
Forecast: 78 / 96 °F
Wind: 12 mph from Northeast

Location: Catania / Fontanarossa

Current Time: Aug 20, 2014 at 7:39:23 PM

Latest Report: Aug 20, 2014 at 6:50 PM


Visibility: 10 mi

Pressure: 29.92 "Hg

Humidity: 70%

Dew point: 72 °F

Location of CataniaLocation

Historic Weather in Catania — Graph

°F

Catania temperature yesterday

Maximum temperature yesterday: 88 °F (at 11:50 AM)
Minimum temperature yesterday: 64 °F (at 4:20 AM)
Average temperature yesterday: 77 °F

Past Weeks' High & Low Weather Summary

 TemperatureHumidityPressure
High100 °F (Aug 12, 12:20 PM)89% (Aug 9, 11:20 PM)30.21 "Hg (Aug 9, 11:20 PM)
Low63 °F (Aug 7, 5:50 AM)10% (Aug 13, 12:50 PM)29.80 "Hg (Aug 6, 1:50 PM)
Average79 °F56%29.93 "Hg
* Reported Aug 5 6:20 PM — Aug 20 6:20 PM, Catania, Weather by CustomWeather, © 2014

Note: Actual official high and low records may vary slightly from our data, if they occured in-between our weather recording intervals... More about our weather records

Advertising

Catania weather history for previous 24 hours

 ConditionsComfort  
Time TempWeatherWind HumidityBarometerVisibility
6:20 PM
Aug 20
82 °FSunny.9 mph70%29.92 "Hg10 mi
5:50 PM82 °FSunny.9 mph70%29.95 "Hg10 mi
5:20 PM84 °FSunny.10 mph70%29.95 "Hg10 mi
4:50 PM86 °FPassing clouds.9 mph66%29.95 "HgN/A
4:20 PM88 °FSunny.9 mph59%29.95 "Hg10 mi
3:50 PM88 °FSunny.10 mph59%29.95 "Hg10 mi
3:20 PM90 °FSunny.10 mph52%29.95 "Hg10 mi
2:50 PM90 °FPassing clouds.10 mph46%29.95 "HgN/A
2:20 PM88 °FPassing clouds.10 mph40%29.98 "HgN/A
1:50 PM88 °FPassing clouds.10 mph43%29.98 "HgN/A
1:20 PM86 °FPassing clouds.10 mph46%29.98 "HgN/A
12:50 PM86 °FSunny.12 mph46%29.98 "Hg10 mi
12:20 PM88 °FSunny.10 mph43%29.98 "Hg10 mi
11:50 AM86 °FSunny.9 mph52%29.98 "Hg10 mi
11:20 AM91 °FPassing clouds.9 mph32%29.98 "HgN/A
10:50 AM88 °FPassing clouds.10 mph38%29.98 "HgN/A
10:20 AM86 °FPassing clouds.10 mph43%29.98 "HgN/A
9:50 AM84 °FPassing clouds.10 mph45%29.98 "HgN/A
9:20 AM82 °FSunny.12 mph48%29.98 "Hg10 mi
8:50 AM81 °FSunny.10 mph51%29.98 "Hg10 mi
8:20 AM79 °FSunny.9 mph58%29.98 "Hg10 mi
7:50 AM75 °FPassing clouds.7 mph69%29.98 "HgN/A
7:20 AM73 °FSunny.3 mph74%29.98 "Hg10 mi
6:50 AM72 °FPassing clouds.6 mph83%29.95 "HgN/A
6:20 AM73 °FClear.9 mph78%29.95 "Hg10 mi
5:50 AM72 °FClear.8 mph78%29.95 "Hg10 mi
5:20 AM72 °FClear.1 mph78%29.95 "Hg10 mi
4:50 AM72 °FPassing clouds.5 mph78%29.95 "HgN/A
4:20 AM73 °FClear.9 mph74%29.95 "Hg10 mi
3:50 AM73 °FClear.7 mph74%29.95 "Hg10 mi
3:20 AM73 °FClear.9 mph74%29.95 "Hg10 mi
2:50 AM75 °FClear.9 mph69%29.95 "Hg10 mi
2:20 AM75 °FClear.12 mph74%29.95 "Hg10 mi
1:50 AM77 °FClear.14 mph69%29.98 "Hg10 mi
1:20 AM77 °FClear.15 mph69%29.98 "Hg10 mi
12:50 AM77 °FClear.10 mph69%29.98 "Hg10 mi
12:20 AM77 °FClear.7 mph65%29.98 "Hg10 mi
11:50 PM
Aug 19
77 °FClear.9 mph65%29.98 "Hg10 mi
11:20 PM77 °FClear.7 mph69%29.98 "Hg10 mi
10:50 PM77 °FClear.6 mph65%29.98 "Hg10 mi
10:20 PM79 °FClear.7 mph61%29.98 "Hg10 mi
9:50 PM79 °FClear.10 mph61%29.98 "Hg10 mi
9:20 PM81 °FPassing clouds.9 mph58%29.98 "HgN/A
8:50 PM79 °FClear.3 mph61%29.98 "Hg10 mi
8:20 PM79 °FSunny.9 mph70%29.95 "Hg10 mi
7:50 PM81 °FSunny.12 mph62%29.95 "Hg10 mi
7:20 PM81 °FSunny.10 mph70%29.95 "Hg10 mi
Weather by CustomWeather, © 2014

See weather overviewHow to use our weather pages